This is the latest recevied weather packets stored in our database for station/object N0MPM-4. If no packets are shown the sender has not sent any weather packets the latest 10 day(s).
| Time | Temp. | Humidity | Pressure | Rain* | Wind** | Luminosity | Snow |
|---|---|---|---|---|---|---|---|
| 1778185768 | 20° C | 40% | 1010.5 hPa | 0 mm | - | - | - |
| 1778185468 | 20° C | 43% | 1010.6 hPa | 0 mm | - | - | - |
| 1778185168 | 19.44° C | 48% | 1010.6 hPa | 0 mm | - | - | - |
| 1778184868 | 18.89° C | 45% | 1010.7 hPa | 0 mm | - | - | - |
| 1778184568 | 18.33° C | 42% | 1010.8 hPa | 0 mm | - | - | - |
| 1778184268 | 18.33° C | 43% | 1010.9 hPa | 0 mm | - | - | - |
| 1778183968 | 18.89° C | 43% | 1010.9 hPa | 0 mm | - | - | - |
| 1778183668 | 18.89° C | 42% | 1010.9 hPa | 0 mm | - | - | - |
| 1778183368 | 18.89° C | 44% | 1011 hPa | 0 mm | - | - | - |
| 1778183068 | 18.89° C | 42% | 1011.1 hPa | 0 mm | - | - | - |
| 1778182768 | 18.89° C | 41% | 1011.1 hPa | 0 mm | - | - | - |
| 1778182468 | 18.89° C | 42% | 1011.1 hPa | 0 mm | - | - | - |
| 1778182168 | 18.89° C | 44% | 1011.3 hPa | 0 mm | - | - | - |
| 1778181868 | 18.89° C | 49% | 1011.3 hPa | 0 mm | - | - | - |
| 1778181568 | 18.89° C | 45% | 1011.3 hPa | 0 mm | - | - | - |
| 1778181269 | 18.89° C | 46% | 1011.3 hPa | 0 mm | - | - | - |
| 1778180968 | 18.89° C | 45% | 1011.3 hPa | 0 mm | - | - | - |
| 1778180668 | 18.89° C | 48% | 1011.5 hPa | 0 mm | - | - | - |
| 1778180368 | 18.89° C | 48% | 1011.6 hPa | 0 mm | - | - | - |
| 1778180068 | 18.89° C | 45% | 1011.6 hPa | 0 mm | - | - | - |
| 1778179768 | 18.89° C | 51% | 1011.6 hPa | 0 mm | - | - | - |
| 1778179469 | 18.33° C | 53% | 1011.7 hPa | 0 mm | - | - | - |
| 1778179169 | 17.78° C | 55% | 1011.8 hPa | 0 mm | - | - | - |
| 1778178869 | 17.22° C | 52% | 1011.8 hPa | 0 mm | - | - | - |
| 1778178569 | 16.67° C | 50% | 1011.9 hPa | 0 mm | - | - | - |
* Rain latest hour (hover to see other rain measurements)
** Current wind speed in m/s (hover to see current wind gust speed)